Weather History for WADD - May, 2014

Change the Weather History Date:

Sunday, May 11, 2014

  Actual Average Record
Temperature  
Mean Temperature 83 °F -  
Max Temperature 89 °F - - ()
Min Temperature 77 °F - - ()
Cooling Degree Days 18    
Growing Degree Days 33 (Base 50)    
Moisture  
Dew Point 76 °F    
Average Humidity 76    
Maximum Humidity 89    
Minimum Humidity 66    
Precipitation  
Precipitation 0.00 in - - ()
Sea Level Pressure  
Sea Level Pressure 29.84 in    
Wind  
Wind Speed 5 mph ()    
Max Wind Speed 10 mph    
Max Gust Speed -    
Visibility 6.2 miles    
Events      
T = Trace of Precipitation, MM = Missing Value Source: Averaged Metar Reports

Daily Weather History Graph

Daily Weather History Graph

Search for Another Location

Airport or City:

Trip Planner

Search our weather history database for the weather conditions in past years. The results will help you decide how hot, cold, wet, or windy it might be!

Date:

Astronomy

May. 11, 2014 Rise Set
Actual Time 6:23 AM WITA 6:07 PM WITA
Civil Twilight 6:01 AM WITA 6:29 PM WITA
Nautical Twilight 5:36 AM WITA 6:55 PM WITA
Astronomical Twilight 5:10 AM WITA 7:20 PM WITA
Moon 3:25 PM WITA (5/11) 3:06 AM WITA (5/11)
Length of Visible Light 12h 28m
Length of Day
11h 44m
Waxing Gibbous, 85% of the Moon is Illuminated
May 11
Waxing Gibbous
May 15
Full
May 21
Last Quarter
May 29
New
Jun 6
First Quarter

Hourly Weather History & Observations

Time (WITA) Temp. Heat Index Dew Point Humidity Pressure Visibility Wind Dir Wind Speed Gust Speed Precip Events Conditions
12:00 AM 84.2 °F 92.3 °F 75.2 °F 74% 29.86 in 6.2 mi ESE 6.9 mph - N/A   Scattered Clouds
12:30 AM 84.2 °F 94.1 °F 77.0 °F 79% 29.86 in 6.2 mi ESE 9.2 mph - N/A   Scattered Clouds
1:00 AM 84.2 °F 94.1 °F 77.0 °F 79% 29.83 in 6.2 mi ESE 6.9 mph - N/A   Scattered Clouds
1:30 AM 84.2 °F 92.3 °F 75.2 °F 74% 29.83 in 6.2 mi ESE 8.1 mph - N/A   Scattered Clouds
2:00 AM 82.4 °F 90.9 °F 77.0 °F 84% 29.83 in 6.2 mi East 6.9 mph - N/A   Scattered Clouds
2:30 AM 80.6 °F 87.1 °F 77.0 °F 89% 29.83 in 6.2 mi NE 3.5 mph - N/A   Scattered Clouds
3:00 AM 80.6 °F 86.2 °F 75.2 °F 84% 29.83 in 6.2 mi NNE 3.5 mph - N/A   Scattered Clouds
3:30 AM 78.8 °F - 73.4 °F 83% 29.80 in 6.2 mi North 2.3 mph - N/A   Partly Cloudy
4:30 AM 78.8 °F - 71.6 °F 78% 29.80 in 6.2 mi North 3.5 mph - N/A   Partly Cloudy
5:00 AM 78.8 °F - 71.6 °F 78% 29.83 in 6.2 mi Calm Calm - N/A   Partly Cloudy
5:30 AM 77.0 °F - 71.6 °F 83% 29.83 in 6.2 mi Variable 1.2 mph - N/A   Partly Cloudy
6:00 AM 77.0 °F - 73.4 °F 89% 29.83 in 6.2 mi Variable 1.2 mph - N/A   Partly Cloudy
6:30 AM 77.0 °F - 71.6 °F 83% 29.83 in 6.2 mi NE 1.2 mph - N/A   Partly Cloudy
7:00 AM 78.8 °F - 71.6 °F 78% 29.86 in 6.2 mi Variable 1.2 mph - N/A   Partly Cloudy
7:30 AM 80.6 °F 85.4 °F 73.4 °F 79% 29.86 in 6.2 mi Variable 2.3 mph - N/A   Partly Cloudy
8:00 AM 82.4 °F 88.2 °F 73.4 °F 74% 29.86 in 6.2 mi Variable 2.3 mph - N/A   Partly Cloudy
8:30 AM 84.2 °F 92.3 °F 75.2 °F 74% 29.86 in 6.2 mi NE 4.6 mph - N/A   Partly Cloudy
9:00 AM 84.2 °F 92.3 °F 75.2 °F 74% 29.86 in 6.2 mi East 3.5 mph - N/A   Partly Cloudy
9:30 AM 86.0 °F 95.1 °F 75.2 °F 70% 29.86 in 6.2 mi East 3.5 mph - N/A   Partly Cloudy
10:00 AM 86.0 °F 96.9 °F 77.0 °F 74% 29.86 in 6.2 mi East 4.6 mph - N/A   Partly Cloudy
10:30 AM 86.0 °F 96.9 °F 77.0 °F 74% 29.86 in 6.2 mi ESE 6.9 mph - N/A   Partly Cloudy
11:00 AM 87.8 °F 99.7 °F 77.0 °F 70% 29.86 in 6.2 mi ESE 6.9 mph - N/A   Partly Cloudy
11:30 AM 87.8 °F 99.7 °F 77.0 °F 70% 29.86 in 6.2 mi ESE 6.9 mph - N/A   Partly Cloudy
12:00 PM 87.8 °F 99.7 °F 77.0 °F 70% 29.86 in 6.2 mi ESE 6.9 mph - N/A   Partly Cloudy
12:30 PM 89.6 °F 102.2 °F 77.0 °F 66% 29.83 in - ESE 9.2 mph - N/A   Partly Cloudy
1:00 PM 87.8 °F 99.7 °F 77.0 °F 70% 29.83 in 6.2 mi ESE 9.2 mph - N/A   Partly Cloudy
1:30 PM 89.6 °F 102.2 °F 77.0 °F 66% 29.83 in 6.2 mi ESE 10.4 mph - N/A   Partly Cloudy
2:00 PM 89.6 °F 102.2 °F 77.0 °F 66% 29.80 in 6.2 mi ESE 10.4 mph - N/A   Partly Cloudy
2:30 PM 89.6 °F 102.2 °F 77.0 °F 66% 29.80 in 6.2 mi ESE 9.2 mph - N/A   Partly Cloudy
3:00 PM 87.8 °F 99.7 °F 77.0 °F 70% 29.80 in 6.2 mi ESE 8.1 mph - N/A   Partly Cloudy
3:30 PM 87.8 °F 97.6 °F 75.2 °F 66% 29.80 in 6.2 mi ESE 9.2 mph - N/A   Partly Cloudy
4:00 PM 87.8 °F 99.7 °F 77.0 °F 70% 29.80 in 6.2 mi SE 9.2 mph - N/A   Partly Cloudy
4:30 PM 87.8 °F 99.7 °F 77.0 °F 70% 29.80 in 6.2 mi SE 8.1 mph - N/A   Partly Cloudy
5:00 PM 86.0 °F 96.9 °F 77.0 °F 74% 29.80 in 6.2 mi SE 8.1 mph - N/A   Partly Cloudy
5:30 PM 86.0 °F 96.9 °F 77.0 °F 74% 29.80 in 6.2 mi SE 8.1 mph - N/A   Partly Cloudy
6:00 PM 84.2 °F 94.1 °F 77.0 °F 79% 29.83 in 6.2 mi SE 6.9 mph - N/A   Partly Cloudy
6:30 PM 84.2 °F 94.1 °F 77.0 °F 79% 29.83 in 6.2 mi SSE 6.9 mph - N/A   Partly Cloudy
7:00 PM 84.2 °F 94.1 °F 77.0 °F 79% 29.83 in 6.2 mi ESE 6.9 mph - N/A   Partly Cloudy
7:30 PM 84.2 °F 94.1 °F 77.0 °F 79% 29.86 in 6.2 mi ESE 6.9 mph - N/A   Partly Cloudy
8:00 PM 84.2 °F 94.1 °F 77.0 °F 79% 29.86 in 6.2 mi ESE 6.9 mph - N/A   Partly Cloudy
8:30 PM 84.2 °F 94.1 °F 77.0 °F 79% 29.89 in 6.2 mi SE 6.9 mph - N/A   Partly Cloudy
9:00 PM 84.2 °F 94.1 °F 77.0 °F 79% 29.89 in 6.2 mi SE 8.1 mph - N/A   Partly Cloudy
9:30 PM 84.2 °F 94.1 °F 77.0 °F 79% 29.89 in 6.2 mi SE 9.2 mph - N/A   Partly Cloudy
10:00 PM 84.2 °F 94.1 °F 77.0 °F 79% 29.89 in 6.2 mi ESE 8.1 mph - N/A   Partly Cloudy
10:30 PM 84.2 °F 94.1 °F 77.0 °F 79% 29.89 in 6.2 mi ESE 6.9 mph - N/A   Scattered Clouds
11:00 PM 84.2 °F 94.1 °F 77.0 °F 79% 29.89 in 6.2 mi ESE 6.9 mph - N/A   Mostly Cloudy
11:30 PM 84.2 °F 94.1 °F 77.0 °F 79% 29.89 in 6.2 mi ESE 8.1 mph - N/A   Scattered Clouds